2021-04-13 00:07:41 r, 17.99m,0000000005Hz,0000086191c,0000000.187s, 010.9C,00002191
2021-04-13 00:17:40 r, 18.09m,0000000005Hz,0000093360c,0000000.203s, 010.9C,00002191
2021-04-13 00:27:40 r, 18.13m,0000000005Hz,0000097716c,0000000.212s, 010.9C,00002191
2021-04-13 00:37:42 r, 17.96m,0000000006Hz,0000083586c,0000000.181s, 010.9C,00002191
2021-04-13 00:47:40 r, 17.90m,0000000006Hz,0000079072c,0000000.172s, 010.6C,00002191
2021-04-13 00:57:40 r, 17.81m,0000000006Hz,0000073691c,0000000.160s, 010.6C,00002191
2021-04-13 01:07:42 r, 17.81m,0000000006Hz,0000073400c,0000000.159s, 010.6C,00002191
2021-04-13 01:17:40 r, 17.78m,0000000006Hz,0000070863c,0000000.154s, 010.6C,00002191
2021-04-13 01:27:40 r, 17.87m,0000000006Hz,0000076325c,0000000.166s, 010.6C,00002191
2021-04-13 01:37:40 r, 17.93m,0000000006Hz,0000080904c,0000000.176s, 010.6C,00002191
2021-04-13 01:47:41 r, 17.86m,0000000006Hz,0000076184c,0000000.165s, 010.6C,00002191
2021-04-13 01:57:40 r, 17.73m,0000000007Hz,0000068078c,0000000.148s, 010.6C,00002191
2021-04-13 02:07:41 r, 17.70m,0000000007Hz,0000066261c,0000000.144s, 010.6C,00002191
2021-04-13 02:17:40 r, 17.58m,0000000007Hz,0000058961c,0000000.128s, 010.6C,00002191
2021-04-13 02:27:40 r, 17.60m,0000000008Hz,0000060398c,0000000.131s, 010.6C,00002191
2021-04-13 02:37:40 r, 17.78m,0000000006Hz,0000071437c,0000000.155s, 010.6C,00002191
2021-04-13 02:47:42 r, 17.90m,0000000005Hz,0000078863c,0000000.171s, 010.6C,00002191
2021-04-13 02:57:40 r, 17.75m,0000000007Hz,0000069124c,0000000.150s, 010.6C,00002191
2021-04-13 03:07:42 r, 17.69m,0000000007Hz,0000065088c,0000000.141s, 010.6C,00002191
2021-04-13 03:17:40 r, 17.67m,0000000007Hz,0000064132c,0000000.139s, 010.6C,00002191
2021-04-13 03:27:40 r, 17.51m,0000000008Hz,0000055781c,0000000.121s, 010.6C,00002191
2021-04-13 03:37:42 r, 17.62m,0000000008Hz,0000061197c,0000000.133s, 010.6C,00002191
2021-04-13 03:47:40 r, 17.63m,0000000008Hz,0000061680c,0000000.134s, 010.6C,00002191
2021-04-13 03:57:40 r, 17.64m,0000000008Hz,0000061965c,0000000.134s, 010.6C,00002191
2021-04-13 04:07:40 r, 17.74m,0000000006Hz,0000069046c,0000000.150s, 010.6C,00002191
2021-04-13 04:17:41 r, 17.76m,0000000007Hz,0000069945c,0000000.152s, 010.6C,00002191
2021-04-13 04:27:40 r, 17.81m,0000000006Hz,0000072785c,0000000.158s, 010.6C,00002191
2021-04-13 04:37:41 r, 18.04m,0000000005Hz,0000089641c,0000000.195s, 010.6C,00002191
2021-04-13 04:47:40 r, 17.87m,0000000006Hz,0000076540c,0000000.166s, 010.6C,00002191
2021-04-13 04:57:40 r, 17.70m,0000000007Hz,0000066220c,0000000.144s, 010.6C,00002191
2021-04-13 05:07:40 r, 17.56m,0000000008Hz,0000057918c,0000000.126s, 010.6C,00002191
2021-04-13 05:17:42 r, 17.67m,0000000007Hz,0000064385c,0000000.140s, 010.6C,00002191
2021-04-13 05:27:40 r, 17.75m,0000000006Hz,0000069149c,0000000.150s, 010.6C,00002191
2021-04-13 05:37:42 r, 17.40m,0000000009Hz,0000050143c,0000000.109s, 010.6C,00002191
2021-04-13 05:47:40 r, 16.29m,0000000025Hz,0000017952c,0000000.039s, 010.6C,00002191
2021-04-13 05:57:40 r, 15.19m,0000000071Hz,0000006510c,0000000.014s, 010.6C,00002191
2021-04-13 06:07:40 r, 13.10m,0000000485Hz,0000000000c,0000000.000s, 010.6C,00002191
2021-04-13 06:17:41 r, 11.31m,0000002538Hz,0000000000c,0000000.000s, 010.6C,00002191
2021-04-13 06:27:40 r, 09.44m,0000014149Hz,0000000000c,0000000.000s, 010.6C,00002191
2021-04-13 06:37:41 r, 08.14m,0000046839Hz,0000000000c,0000000.000s, 010.6C,00002191
2021-04-13 06:47:40 r, 07.44m,0000089646Hz,0000000000c,0000000.000s, 010.6C,00002191
2021-04-13 06:57:40 r, 06.51m,0000210164Hz,0000000000c,0000000.000s, 010.6C,00002191
2021-04-13 07:07:40 r, 05.85m,0000386563Hz,0000000000c,0000000.000s, 010.6C,00002191
2021-04-13 07:17:42 r, 00.00m,0000598149Hz,0000000000c,0000000.000s, 010.6C,00002191
2021-04-13 07:27:40 r, 00.00m,0000598073Hz,0000000000c,0000000.000s, 010.9C,00002191
2021-04-13 07:37:42 r, 00.00m,0000598017Hz,0000000000c,0000000.000s, 011.2C,00002191
2021-04-13 07:47:40 r, 00.00m,0000598080Hz,0000000000c,0000000.000s, 011.6C,00002191
2021-04-13 07:57:40 r, 00.00m,0000598027Hz,0000000000c,0000000.000s, 011.6C,00002191
2021-04-13 08:07:42 r, 00.00m,0000598057Hz,0000000000c,0000000.000s, 011.9C,00002191
2021-04-13 08:17:40 r, 00.00m,0000597962Hz,0000000000c,0000000.000s, 012.2C,00002191
2021-04-13 08:27:40 r, 00.00m,0000598007Hz,0000000000c,0000000.000s, 012.2C,00002191
2021-04-13 08:37:40 r, 00.00m,0000597888Hz,0000000000c,0000000.000s, 012.5C,00002191
2021-04-13 08:47:41 r, 00.00m,0000597787Hz,0000000000c,0000000.000s, 012.8C,00002191
2021-04-13 08:57:40 r, 00.00m,0000597753Hz,0000000000c,0000000.000s, 013.2C,00002191
2021-04-13 09:07:41 r, 00.00m,0000597711Hz,0000000000c,0000000.000s, 013.8C,00002191
2021-04-13 09:17:40 r, 00.00m,0000597727Hz,0000000000c,0000000.000s, 014.1C,00002191
2021-04-13 09:27:40 r, 00.00m,0000597672Hz,0000000000c,0000000.000s, 014.1C,00002191
2021-04-13 09:37:40 r, 00.00m,0000597709Hz,0000000000c,0000000.000s, 014.5C,00002191
2021-04-13 09:47:42 r, 00.00m,0000597652Hz,0000000000c,0000000.000s, 015.1C,00002191
2021-04-13 09:57:40 r, 00.00m,0000597526Hz,0000000000c,0000000.000s, 015.4C,00002191
2021-04-13 10:07:42 r, 00.00m,0000597496Hz,0000000000c,0000000.000s, 015.7C,00002191
2021-04-13 10:17:40 r, 00.00m,0000597416Hz,0000000000c,0000000.000s, 016.4C,00002191
2021-04-13 10:27:40 r, 00.00m,0000597356Hz,0000000000c,0000000.000s, 017.4C,00002191
2021-04-13 10:37:42 r, 00.00m,0000597238Hz,0000000000c,0000000.000s, 017.7C,00002191
2021-04-13 10:47:40 r, 00.00m,0000597146Hz,0000000000c,0000000.000s, 018.3C,00002191
2021-04-13 10:57:40 r, 00.00m,0000597217Hz,0000000000c,0000000.000s, 018.0C,00002191
2021-04-13 11:07:40 r, 00.00m,0000597232Hz,0000000000c,0000000.000s, 018.3C,00002191
2021-04-13 11:17:41 r, 00.00m,0000597190Hz,0000000000c,0000000.000s, 018.0C,00002191
2021-04-13 11:27:40 r, 00.00m,0000597163Hz,0000000000c,0000000.000s, 018.3C,00002191
2021-04-13 11:37:41 r, 00.00m,0000597157Hz,0000000000c,0000000.000s, 019.0C,00002191
2021-04-13 11:47:40 r, 00.00m,0000597204Hz,0000000000c,0000000.000s, 018.6C,00002191
2021-04-13 11:57:40 r, 00.00m,0000597121Hz,0000000000c,0000000.000s, 018.6C,00002191
2021-04-13 12:07:40 r, 00.00m,0000597012Hz,0000000000c,0000000.000s, 019.6C,00002191
2021-04-13 12:17:42 r, 00.00m,0000596858Hz,0000000000c,0000000.000s, 020.6C,00002191
2021-04-13 12:27:40 r, 00.00m,0000596768Hz,0000000000c,0000000.000s, 020.9C,00002191
2021-04-13 12:37:42 r, 00.00m,0000596771Hz,0000000000c,0000000.000s, 021.5C,00002191
2021-04-13 12:47:40 r, 00.00m,0000596645Hz,0000000000c,0000000.000s, 022.2C,00002191
2021-04-13 12:57:40 r, 00.00m,0000596827Hz,0000000000c,0000000.000s, 021.5C,00002191
2021-04-13 13:07:40 r, 00.00m,0000596905Hz,0000000000c,0000000.000s, 021.2C,00002191
2021-04-13 13:17:41 r, 00.00m,0000596731Hz,0000000000c,0000000.000s, 021.2C,00002191
2021-04-13 13:27:40 r, 00.00m,0000596518Hz,0000000000c,0000000.000s, 022.5C,00002191
2021-04-13 13:37:41 r, 00.00m,0000596593Hz,0000000000c,0000000.000s, 022.2C,00002191
2021-04-13 13:47:40 r, 00.00m,0000596655Hz,0000000000c,0000000.000s, 022.2C,00002191
2021-04-13 13:57:40 r, 00.00m,0000596701Hz,0000000000c,0000000.000s, 021.5C,00002191
2021-04-13 14:07:40 r, 00.00m,0000596882Hz,0000000000c,0000000.000s, 020.3C,00002191
2021-04-13 14:17:42 r, 00.00m,0000596929Hz,0000000000c,0000000.000s, 019.3C,00002191
2021-04-13 14:27:40 r, 00.00m,0000597041Hz,0000000000c,0000000.000s, 019.0C,00002191
2021-04-13 14:37:42 r, 00.00m,0000597148Hz,0000000000c,0000000.000s, 019.0C,00002191
2021-04-13 14:47:40 r, 00.00m,0000597252Hz,0000000000c,0000000.000s, 018.0C,00002191
2021-04-13 14:57:40 r, 00.00m,0000597108Hz,0000000000c,0000000.000s, 018.3C,00002191
2021-04-13 15:07:42 r, 00.00m,0000597159Hz,0000000000c,0000000.000s, 018.6C,00002191
2021-04-13 15:17:40 r, 00.00m,0000597029Hz,0000000000c,0000000.000s, 019.3C,00002191
2021-04-13 15:27:40 r, 00.00m,0000596952Hz,0000000000c,0000000.000s, 019.6C,00002191
2021-04-13 15:37:40 r, 00.00m,0000596808Hz,0000000000c,0000000.000s, 020.6C,00002191
2021-04-13 15:47:41 r, 00.00m,0000596870Hz,0000000000c,0000000.000s, 020.6C,00002191
2021-04-13 15:57:40 r, 00.00m,0000596914Hz,0000000000c,0000000.000s, 020.6C,00002191
2021-04-13 16:07:41 r, 00.00m,0000596932Hz,0000000000c,0000000.000s, 020.3C,00002191
2021-04-13 16:17:40 r, 00.00m,0000596894Hz,0000000000c,0000000.000s, 020.3C,00002191
2021-04-13 16:27:40 r, 00.00m,0000596866Hz,0000000000c,0000000.000s, 020.6C,00002191
2021-04-13 16:37:40 r, 00.00m,0000596971Hz,0000000000c,0000000.000s, 020.3C,00002191
2021-04-13 16:47:42 r, 00.00m,0000596993Hz,0000000000c,0000000.000s, 019.6C,00002191
2021-04-13 16:57:40 r, 00.00m,0000597191Hz,0000000000c,0000000.000s, 018.0C,00002191
2021-04-13 17:07:42 r, 00.00m,0000597177Hz,0000000000c,0000000.000s, 017.7C,00002191
2021-04-13 17:17:40 r, 00.00m,0000597192Hz,0000000000c,0000000.000s, 018.0C,00002191
2021-04-13 17:27:41 r, 00.00m,0000597213Hz,0000000000c,0000000.000s, 017.7C,00002191
2021-04-13 17:37:40 r, 00.00m,0000597282Hz,0000000000c,0000000.000s, 017.4C,00002191
2021-04-13 17:47:41 r, 00.00m,0000597271Hz,0000000000c,0000000.000s, 017.0C,00002191
2021-04-13 17:57:40 r, 00.00m,0000597388Hz,0000000000c,0000000.000s, 016.7C,00002191
2021-04-13 18:07:40 r, 00.00m,0000597353Hz,0000000000c,0000000.000s, 016.1C,00002191
2021-04-13 18:17:42 r, 00.00m,0000597430Hz,0000000000c,0000000.000s, 015.4C,00002191
2021-04-13 18:27:40 r, 00.00m,0000597492Hz,0000000000c,0000000.000s, 015.4C,00002191
2021-04-13 18:37:40 r, 00.00m,0000597649Hz,0000000000c,0000000.000s, 015.1C,00002191
2021-04-13 18:47:42 r, 00.00m,0000597542Hz,0000000000c,0000000.000s, 015.1C,00002191
2021-04-13 18:57:40 r, 00.00m,0000597585Hz,0000000000c,0000000.000s, 014.5C,00002191
2021-04-13 19:07:40 r, 00.00m,0000597721Hz,0000000000c,0000000.000s, 014.1C,00002191
2021-04-13 19:17:40 r, 00.00m,0000597782Hz,0000000000c,0000000.000s, 013.8C,00002191
2021-04-13 19:27:41 r, 00.00m,0000597775Hz,0000000000c,0000000.000s, 013.5C,00002191
2021-04-13 19:37:40 r, 00.00m,0000597808Hz,0000000000c,0000000.000s, 013.2C,00002191
2021-04-13 19:47:41 r, 00.00m,0000504022Hz,0000000000c,0000000.000s, 012.8C,00002191
2021-04-13 19:57:40 r, 06.10m,0000307746Hz,0000000000c,0000000.000s, 012.8C,00002191
2021-04-13 20:07:40 r, 06.70m,0000176281Hz,0000000000c,0000000.000s, 012.5C,00002191
2021-04-13 20:17:40 r, 07.55m,0000081160Hz,0000000000c,0000000.000s, 012.2C,00002191
2021-04-13 20:27:42 r, 08.61m,0000030279Hz,0000000000c,0000000.000s, 012.2C,00002191
2021-04-13 20:37:40 r, 10.30m,0000006458Hz,0000000000c,0000000.000s, 011.9C,00002191
2021-04-13 20:47:42 r, 12.27m,0000001055Hz,0000000000c,0000000.000s, 011.9C,00002191
2021-04-13 20:57:40 r, 14.09m,0000000195Hz,0000000000c,0000000.000s, 011.9C,00002191
2021-04-13 21:07:40 r, 15.77m,0000000041Hz,0000011141c,0000000.024s, 011.9C,00002191
2021-04-13 21:17:42 r, 16.85m,0000000016Hz,0000030146c,0000000.065s, 011.9C,00002191
2021-04-13 21:27:40 r, 17.51m,0000000009Hz,0000055547c,0000000.121s, 011.9C,00002191
2021-04-13 21:37:40 r, 17.52m,0000000009Hz,0000055820c,0000000.121s, 011.9C,00002191
2021-04-13 21:47:40 r, 17.44m,0000000009Hz,0000051881c,0000000.113s, 011.9C,00002191
2021-04-13 21:57:41 r, 17.52m,0000000008Hz,0000056043c,0000000.122s, 011.9C,00002191
2021-04-13 22:07:40 r, 17.79m,0000000007Hz,0000071696c,0000000.156s, 011.9C,00002191
2021-04-13 22:17:41 r, 17.74m,0000000006Hz,0000068293c,0000000.148s, 011.9C,00002191
2021-04-13 22:27:40 r, 17.95m,0000000005Hz,0000083091c,0000000.180s, 011.9C,00002191
2021-04-13 22:37:40 r, 18.10m,0000000005Hz,0000095312c,0000000.207s, 011.9C,00002191
2021-04-13 22:47:41 r, 18.48m,0000000003Hz,0000134594c,0000000.292s, 011.9C,00002191
2021-04-13 22:57:42 r, 17.86m,0000000006Hz,0000076349c,0000000.166s, 011.9C,00002191
2021-04-13 23:07:40 r, 17.82m,0000000006Hz,0000074030c,0000000.161s, 011.9C,00002191
2021-04-13 23:17:42 r, 17.75m,0000000007Hz,0000069612c,0000000.151s, 011.9C,00002191
2021-04-13 23:27:40 r, 17.94m,0000000006Hz,0000082080c,0000000.178s, 011.9C,00002191
2021-04-13 23:37:40 r, 17.98m,0000000005Hz,0000085697c,0000000.186s, 011.9C,00002191
2021-04-13 23:47:42 r, 18.15m,0000000005Hz,0000099454c,0000000.216s, 011.9C,00002191
2021-04-13 23:57:40 r, 18.24m,0000000004Hz,0000108878c,0000000.236s, 011.9C,00002191
